owner,sensor,date,latitude,longitude,vertical_datum,wind_speed,wind_to_direction,wind_speed_of_gust,qcFlag 
SCCF RECON,ioos:station:SCCF:16:1,2017-12-01T05:45:00Z,26.4345,-81.9647,10.0,3.5,43.6,-9999.0,'1111122,1111122,1111122' 
SCCF RECON,ioos:station:SCCF:16:1,2017-12-01T06:45:00Z,26.4345,-81.9647,10.0,4.0,14.2,-9999.0,'1111122,1111122,1111122' 
SCCF RECON,ioos:station:SCCF:16:1,2017-12-01T07:45:00Z,26.4345,-81.9647,10.0,3.8,29.3,-9999.0,'1111122,1111122,1111122' 
SCCF RECON,ioos:station:SCCF:16:1,2017-12-01T08:45:00Z,26.4345,-81.9647,10.0,5.6,9.6,-9999.0,'1111122,1111122,1111122' 
SCCF RECON,ioos:station:SCCF:16:1,2017-12-01T09:45:00Z,26.4345,-81.9647,10.0,4.5,13.3,-9999.0,'1111122,1111122,1111122' 
SCCF RECON,ioos:station:SCCF:16:1,2017-12-01T10:45:00Z,26.4345,-81.9647,10.0,4.7,26.6,-9999.0,'1111122,1111122,1111122' 
SCCF RECON,ioos:station:SCCF:16:1,2017-12-01T11:45:00Z,26.4345,-81.9647,10.0,4.1,43.9,-9999.0,'1111122,1111122,1111122' 
SCCF RECON,ioos:station:SCCF:16:1,2017-12-01T12:45:00Z,26.4345,-81.9647,10.0,4.4,21.1,-9999.0,'1111122,1111122,1111122' 
SCCF RECON,ioos:station:SCCF:16:1,2017-12-01T13:45:00Z,26.4345,-81.9647,10.0,4.5,33.9,-9999.0,'1111122,1111122,1111122' 
SCCF RECON,ioos:station:SCCF:16:1,2017-12-01T14:45:00Z,26.4345,-81.9647,10.0,3.1,24.7,-9999.0,'1111122,1111122,1111122' 
SCCF RECON,ioos:station:SCCF:16:1,2017-12-01T15:45:00Z,26.4345,-81.9647,10.0,4.4,25.0,-9999.0,'1111122,1111122,1111122' 
SCCF RECON,ioos:station:SCCF:16:1,2017-12-01T16:45:00Z,26.4345,-81.9647,10.0,3.9,1.4,-9999.0,'1111122,1111122,1111122' 
SCCF RECON,ioos:station:SCCF:16:1,2017-12-01T17:45:00Z,26.4345,-81.9647,10.0,4.1,62.7,-9999.0,'1111122,1111122,1111122' 
SCCF RECON,ioos:station:SCCF:16:1,2017-12-01T18:45:00Z,26.4345,-81.9647,10.0,3.4,12.3,-9999.0,'1111122,1111122,1111122' 
SCCF RECON,ioos:station:SCCF:16:1,2017-12-01T19:45:00Z,26.4345,-81.9647,10.0,2.4,44.3,-9999.0,'1111122,1111122,1111122' 
SCCF RECON,ioos:station:SCCF:16:1,2017-12-01T20:45:00Z,26.4345,-81.9647,10.0,3.1,6.0,-9999.0,'1111122,1111122,1111122' 
SCCF RECON,ioos:station:SCCF:16:1,2017-12-01T21:45:00Z,26.4345,-81.9647,10.0,2.4,53.4,-9999.0,'1111122,1111122,1111122' 
SCCF RECON,ioos:station:SCCF:16:1,2017-12-01T22:45:00Z,26.4345,-81.9647,10.0,2.0,67.9,-9999.0,'1111122,1111122,1111122' 
SCCF RECON,ioos:station:SCCF:16:1,2017-12-02T05:45:00Z,26.4345,-81.9647,10.0,3.4,31.7,-9999.0,'1111122,1111122,1111122' 
SCCF RECON,ioos:station:SCCF:16:1,2017-12-02T06:45:00Z,26.4345,-81.9647,10.0,3.4,31.8,-9999.0,'1111122,1111122,1111122' 
SCCF RECON,ioos:station:SCCF:16:1,2017-12-02T07:45:00Z,26.4345,-81.9647,10.0,3.8,33.8,-9999.0,'1111122,1111122,1111122' 
SCCF RECON,ioos:station:SCCF:16:1,2017-12-02T08:45:00Z,26.4345,-81.9647,10.0,3.3,27.4,-9999.0,'1111122,1111122,1111122' 
SCCF RECON,ioos:station:SCCF:16:1,2017-12-02T09:45:00Z,26.4345,-81.9647,10.0,3.6,28.1,-9999.0,'1111122,1111122,1111122' 
SCCF RECON,ioos:station:SCCF:16:1,2017-12-02T10:45:00Z,26.4345,-81.9647,10.0,3.0,39.2,-9999.0,'1111122,1111122,1111122' 
SCCF RECON,ioos:station:SCCF:16:1,2017-12-02T11:45:00Z,26.4345,-81.9647,10.0,3.7,41.1,-9999.0,'1111122,1111122,1111122' 
SCCF RECON,ioos:station:SCCF:16:1,2017-12-02T12:45:00Z,26.4345,-81.9647,10.0,3.9,40.2,-9999.0,'1111122,1111122,1111122' 
SCCF RECON,ioos:station:SCCF:16:1,2017-12-02T13:45:00Z,26.4345,-81.9647,10.0,2.5,65.1,-9999.0,'1111122,1111122,1111122' 
SCCF RECON,ioos:station:SCCF:16:1,2017-12-02T14:45:00Z,26.4345,-81.9647,10.0,1.7,261.6,-9999.0,'1111122,1111122,1111122' 
SCCF RECON,ioos:station:SCCF:16:1,2017-12-02T15:45:00Z,26.4345,-81.9647,10.0,0.7,210.5,-9999.0,'1111122,1111122,1111122' 
SCCF RECON,ioos:station:SCCF:16:1,2017-12-02T16:45:00Z,26.4345,-81.9647,10.0,1.6,296.7,-9999.0,'1111122,1111122,1111122' 
SCCF RECON,ioos:station:SCCF:16:1,2017-12-02T17:45:00Z,26.4345,-81.9647,10.0,2.3,100.9,-9999.0,'1111122,1111122,1111122' 
SCCF RECON,ioos:station:SCCF:16:1,2017-12-02T18:45:00Z,26.4345,-81.9647,10.0,3.8,78.1,-9999.0,'1111122,1111122,1111122' 
SCCF RECON,ioos:station:SCCF:16:1,2017-12-02T19:45:00Z,26.4345,-81.9647,10.0,2.2,71.3,-9999.0,'1111122,1111122,1111122' 
SCCF RECON,ioos:station:SCCF:16:1,2017-12-02T20:45:00Z,26.4345,-81.9647,10.0,1.6,78.9,-9999.0,'1111122,1111122,1111122' 
SCCF RECON,ioos:station:SCCF:16:1,2017-12-02T21:45:00Z,26.4345,-81.9647,10.0,2.2,53.7,-9999.0,'1111122,1111122,1111122' 
SCCF RECON,ioos:station:SCCF:16:1,2017-12-02T22:45:00Z,26.4345,-81.9647,10.0,2.6,51.1,-9999.0,'1111122,1111122,1111122' 
SCCF RECON,ioos:station:SCCF:16:1,2017-12-03T05:45:00Z,26.4345,-81.9647,10.0,0.6,265.2,-9999.0,'1111122,1111122,1111122' 
SCCF RECON,ioos:station:SCCF:16:1,2017-12-03T07:45:00Z,26.4345,-81.9647,10.0,0.6,288.9,-9999.0,'1111122,1111122,1111122' 
SCCF RECON,ioos:station:SCCF:16:1,2017-12-03T08:45:00Z,26.4345,-81.9647,10.0,0.5,314.8,-9999.0,'1111122,1111122,1111122' 
SCCF RECON,ioos:station:SCCF:16:1,2017-12-03T09:45:00Z,26.4345,-81.9647,10.0,2.1,14.4,-9999.0,'1111122,1111122,1111122' 
SCCF RECON,ioos:station:SCCF:16:1,2017-12-03T10:45:00Z,26.4345,-81.9647,10.0,2.5,23.1,-9999.0,'1111122,1111122,1111122' 
SCCF RECON,ioos:station:SCCF:16:1,2017-12-03T11:45:00Z,26.4345,-81.9647,10.0,3.2,22.8,-9999.0,'1111122,1111122,1111122' 
SCCF RECON,ioos:station:SCCF:16:1,2017-12-03T12:45:00Z,26.4345,-81.9647,10.0,1.2,287.7,-9999.0,'1111122,1111122,1111122' 
SCCF RECON,ioos:station:SCCF:16:1,2017-12-03T13:45:00Z,26.4345,-81.9647,10.0,1.5,288.4,-9999.0,'1111122,1111122,1111122' 
SCCF RECON,ioos:station:SCCF:16:1,2017-12-03T14:45:00Z,26.4345,-81.9647,10.0,1.6,238.6,-9999.0,'1111122,1111122,1111122' 
SCCF RECON,ioos:station:SCCF:16:1,2017-12-03T15:45:00Z,26.4345,-81.9647,10.0,0.4,80.1,-9999.0,'1111122,1111122,1111122' 
SCCF RECON,ioos:station:SCCF:16:1,2017-12-03T17:45:00Z,26.4345,-81.9647,10.0,1.0,48.4,-9999.0,'1111122,1111122,1111122' 
SCCF RECON,ioos:station:SCCF:16:1,2017-12-03T18:45:00Z,26.4345,-81.9647,10.0,1.1,34.2,-9999.0,'1111122,1111122,1111122' 
SCCF RECON,ioos:station:SCCF:16:1,2017-12-03T19:45:00Z,26.4345,-81.9647,10.0,2.4,265.5,-9999.0,'1111122,1111122,1111122' 
SCCF RECON,ioos:station:SCCF:16:1,2017-12-03T20:45:00Z,26.4345,-81.9647,10.0,5.2,305.5,-9999.0,'1111122,1111122,1111122' 
SCCF RECON,ioos:station:SCCF:16:1,2017-12-03T21:45:00Z,26.4345,-81.9647,10.0,5.9,311.7,-9999.0,'1111122,1111122,1111122' 
SCCF RECON,ioos:station:SCCF:16:1,2017-12-03T22:45:00Z,26.4345,-81.9647,10.0,5.8,324.2,-9999.0,'1111122,1111122,1111122' 
SCCF RECON,ioos:station:SCCF:16:1,2017-12-04T05:45:00Z,26.4345,-81.9647,10.0,4.0,36.7,-9999.0,'1111122,1111122,1111122' 
SCCF RECON,ioos:station:SCCF:16:1,2017-12-04T06:45:00Z,26.4345,-81.9647,10.0,3.2,81.0,-9999.0,'1111122,1111122,1111122' 
SCCF RECON,ioos:station:SCCF:16:1,2017-12-04T07:45:00Z,26.4345,-81.9647,10.0,3.0,103.8,-9999.0,'1111122,1111122,1111122' 
SCCF RECON,ioos:station:SCCF:16:1,2017-12-04T08:45:00Z,26.4345,-81.9647,10.0,4.7,40.8,-9999.0,'1111122,1111122,1111122' 
SCCF RECON,ioos:station:SCCF:16:1,2017-12-04T09:45:00Z,26.4345,-81.9647,10.0,4.0,50.7,-9999.0,'1111122,1111122,1111122' 
SCCF RECON,ioos:station:SCCF:16:1,2017-12-04T10:45:00Z,26.4345,-81.9647,10.0,5.2,30.7,-9999.0,'1111122,1111122,1111122' 
SCCF RECON,ioos:station:SCCF:16:1,2017-12-04T11:45:00Z,26.4345,-81.9647,10.0,4.2,42.2,-9999.0,'1111122,1111122,1111122' 
SCCF RECON,ioos:station:SCCF:16:1,2017-12-04T12:45:00Z,26.4345,-81.9647,10.0,4.1,27.9,-9999.0,'1111122,1111122,1111122' 
SCCF RECON,ioos:station:SCCF:16:1,2017-12-04T13:45:00Z,26.4345,-81.9647,10.0,2.8,16.9,-9999.0,'1111122,1111122,1111122' 
SCCF RECON,ioos:station:SCCF:16:1,2017-12-04T14:45:00Z,26.4345,-81.9647,10.0,5.4,50.4,-9999.0,'1111122,1111122,1111122' 
SCCF RECON,ioos:station:SCCF:16:1,2017-12-04T15:45:00Z,26.4345,-81.9647,10.0,4.2,61.8,-9999.0,'1111122,1111122,1111122' 
SCCF RECON,ioos:station:SCCF:16:1,2017-12-04T16:45:00Z,26.4345,-81.9647,10.0,3.2,87.8,-9999.0,'1111122,1111122,1111122' 
SCCF RECON,ioos:station:SCCF:16:1,2017-12-04T17:45:00Z,26.4345,-81.9647,10.0,3.7,109.9,-9999.0,'1111122,1111122,1111122' 
SCCF RECON,ioos:station:SCCF:16:1,2017-12-04T18:45:00Z,26.4345,-81.9647,10.0,2.6,112.5,-9999.0,'1111122,1111122,1111122' 
SCCF RECON,ioos:station:SCCF:16:1,2017-12-04T19:45:00Z,26.4345,-81.9647,10.0,2.8,92.7,-9999.0,'1111122,1111122,1111122' 
SCCF RECON,ioos:station:SCCF:16:1,2017-12-04T20:45:00Z,26.4345,-81.9647,10.0,4.1,94.9,-9999.0,'1111122,1111122,1111122' 
SCCF RECON,ioos:station:SCCF:16:1,2017-12-04T21:45:00Z,26.4345,-81.9647,10.0,2.4,57.5,-9999.0,'1111122,1111122,1111122' 
SCCF RECON,ioos:station:SCCF:16:1,2017-12-04T22:45:00Z,26.4345,-81.9647,10.0,4.3,57.5,-9999.0,'1111122,1111122,1111122' 
SCCF RECON,ioos:station:SCCF:16:1,2017-12-05T05:45:00Z,26.4345,-81.9647,10.0,4.0,72.4,-9999.0,'1111122,1111122,1111122' 
SCCF RECON,ioos:station:SCCF:16:1,2017-12-05T06:45:00Z,26.4345,-81.9647,10.0,2.4,56.9,-9999.0,'1111122,1111122,1111122' 
SCCF RECON,ioos:station:SCCF:16:1,2017-12-05T07:45:00Z,26.4345,-81.9647,10.0,2.4,39.9,-9999.0,'1111122,1111122,1111122' 
SCCF RECON,ioos:station:SCCF:16:1,2017-12-05T08:45:00Z,26.4345,-81.9647,10.0,2.8,65.5,-9999.0,'1111122,1111122,1111122' 
SCCF RECON,ioos:station:SCCF:16:1,2017-12-05T09:45:00Z,26.4345,-81.9647,10.0,2.9,36.3,-9999.0,'1111122,1111122,1111122' 
SCCF RECON,ioos:station:SCCF:16:1,2017-12-05T10:45:00Z,26.4345,-81.9647,10.0,4.0,44.1,-9999.0,'1111122,1111122,1111122' 
SCCF RECON,ioos:station:SCCF:16:1,2017-12-05T11:45:00Z,26.4345,-81.9647,10.0,3.8,58.3,-9999.0,'1111122,1111122,1111122' 
SCCF RECON,ioos:station:SCCF:16:1,2017-12-05T12:45:00Z,26.4345,-81.9647,10.0,3.8,85.9,-9999.0,'1111122,1111122,1111122' 
SCCF RECON,ioos:station:SCCF:16:1,2017-12-05T13:45:00Z,26.4345,-81.9647,10.0,4.1,69.9,-9999.0,'1111122,1111122,1111122' 
SCCF RECON,ioos:station:SCCF:16:1,2017-12-05T14:45:00Z,26.4345,-81.9647,10.0,2.4,83.7,-9999.0,'1111122,1111122,1111122' 
SCCF RECON,ioos:station:SCCF:16:1,2017-12-05T15:45:00Z,26.4345,-81.9647,10.0,3.3,88.3,-9999.0,'1111122,1111122,1111122' 
SCCF RECON,ioos:station:SCCF:16:1,2017-12-05T16:45:00Z,26.4345,-81.9647,10.0,4.5,118.2,-9999.0,'1111122,1111122,1111122' 
SCCF RECON,ioos:station:SCCF:16:1,2017-12-05T17:45:00Z,26.4345,-81.9647,10.0,2.0,115.7,-9999.0,'1111122,1111122,1111122' 
SCCF RECON,ioos:station:SCCF:16:1,2017-12-05T18:45:00Z,26.4345,-81.9647,10.0,1.9,252.0,-9999.0,'1111122,1111122,1111122' 
SCCF RECON,ioos:station:SCCF:16:1,2017-12-05T19:45:00Z,26.4345,-81.9647,10.0,3.9,250.2,-9999.0,'1111122,1111122,1111122' 
SCCF RECON,ioos:station:SCCF:16:1,2017-12-05T20:45:00Z,26.4345,-81.9647,10.0,3.8,243.0,-9999.0,'1111122,1111122,1111122' 
SCCF RECON,ioos:station:SCCF:16:1,2017-12-05T21:45:00Z,26.4345,-81.9647,10.0,3.5,231.9,-9999.0,'1111122,1111122,1111122' 
SCCF RECON,ioos:station:SCCF:16:1,2017-12-05T22:45:00Z,26.4345,-81.9647,10.0,1.8,245.9,-9999.0,'1111122,1111122,1111122' 
SCCF RECON,ioos:station:SCCF:16:1,2017-12-06T05:45:00Z,26.4345,-81.9647,10.0,1.8,134.2,-9999.0,'1111122,1111122,1111122' 
SCCF RECON,ioos:station:SCCF:16:1,2017-12-06T06:45:00Z,26.4345,-81.9647,10.0,1.6,75.3,-9999.0,'1111122,1111122,1111122' 
SCCF RECON,ioos:station:SCCF:16:1,2017-12-06T07:45:00Z,26.4345,-81.9647,10.0,1.6,61.2,-9999.0,'1111122,1111122,1111122' 
SCCF RECON,ioos:station:SCCF:16:1,2017-12-06T08:45:00Z,26.4345,-81.9647,10.0,1.6,54.5,-9999.0,'1111122,1111122,1111122' 
SCCF RECON,ioos:station:SCCF:16:1,2017-12-06T09:45:00Z,26.4345,-81.9647,10.0,2.1,63.6,-9999.0,'1111122,1111122,1111122' 
SCCF RECON,ioos:station:SCCF:16:1,2017-12-06T10:45:00Z,26.4345,-81.9647,10.0,2.5,75.0,-9999.0,'1111122,1111122,1111122' 
SCCF RECON,ioos:station:SCCF:16:1,2017-12-06T11:45:00Z,26.4345,-81.9647,10.0,3.0,85.9,-9999.0,'1111122,1111122,1111122' 
SCCF RECON,ioos:station:SCCF:16:1,2017-12-06T12:45:00Z,26.4345,-81.9647,10.0,3.3,81.3,-9999.0,'1111122,1111122,1111122' 
SCCF RECON,ioos:station:SCCF:16:1,2017-12-06T13:45:00Z,26.4345,-81.9647,10.0,4.0,97.8,-9999.0,'1111122,1111122,1111122' 
SCCF RECON,ioos:station:SCCF:16:1,2017-12-06T14:45:00Z,26.4345,-81.9647,10.0,2.3,101.9,-9999.0,'1111122,1111122,1111122' 
SCCF RECON,ioos:station:SCCF:16:1,2017-12-06T15:45:00Z,26.4345,-81.9647,10.0,2.8,171.1,-9999.0,'1111122,1111122,1111122' 
SCCF RECON,ioos:station:SCCF:16:1,2017-12-06T16:45:00Z,26.4345,-81.9647,10.0,1.4,229.2,-9999.0,'1111122,1111122,1111122' 
SCCF RECON,ioos:station:SCCF:16:1,2017-12-06T17:45:00Z,26.4345,-81.9647,10.0,2.5,232.7,-9999.0,'1111122,1111122,1111122' 
SCCF RECON,ioos:station:SCCF:16:1,2017-12-06T18:45:00Z,26.4345,-81.9647,10.0,4.1,218.5,-9999.0,'1111122,1111122,1111122' 
SCCF RECON,ioos:station:SCCF:16:1,2017-12-06T19:45:00Z,26.4345,-81.9647,10.0,3.9,217.8,-9999.0,'1111122,1111122,1111122' 
SCCF RECON,ioos:station:SCCF:16:1,2017-12-06T20:45:00Z,26.4345,-81.9647,10.0,3.6,224.5,-9999.0,'1111122,1111122,1111122' 
SCCF RECON,ioos:station:SCCF:16:1,2017-12-06T21:45:00Z,26.4345,-81.9647,10.0,2.1,218.9,-9999.0,'1111122,1111122,1111122' 
SCCF RECON,ioos:station:SCCF:16:1,2017-12-06T22:45:00Z,26.4345,-81.9647,10.0,2.1,228.8,-9999.0,'1111122,1111122,1111122' 
SCCF RECON,ioos:station:SCCF:16:1,2017-12-07T05:45:00Z,26.4345,-81.9647,10.0,2.5,141.4,-9999.0,'1111122,1111122,1111122' 
SCCF RECON,ioos:station:SCCF:16:1,2017-12-07T06:45:00Z,26.4345,-81.9647,10.0,1.6,150.4,-9999.0,'1111122,1111122,1111122' 
SCCF RECON,ioos:station:SCCF:16:1,2017-12-07T07:45:00Z,26.4345,-81.9647,10.0,1.6,158.9,-9999.0,'1111122,1111122,1111122' 
SCCF RECON,ioos:station:SCCF:16:1,2017-12-07T08:45:00Z,26.4345,-81.9647,10.0,2.1,74.6,-9999.0,'1111122,1111122,1111122' 
SCCF RECON,ioos:station:SCCF:16:1,2017-12-07T09:45:00Z,26.4345,-81.9647,10.0,2.7,107.0,-9999.0,'1111122,1111122,1111122' 
SCCF RECON,ioos:station:SCCF:16:1,2017-12-07T10:45:00Z,26.4345,-81.9647,10.0,3.0,101.8,-9999.0,'1111122,1111122,1111122' 
SCCF RECON,ioos:station:SCCF:16:1,2017-12-07T11:45:00Z,26.4345,-81.9647,10.0,3.4,91.8,-9999.0,'1111122,1111122,1111122' 
SCCF RECON,ioos:station:SCCF:16:1,2017-12-07T12:45:00Z,26.4345,-81.9647,10.0,2.6,63.4,-9999.0,'1111122,1111122,1111122' 
SCCF RECON,ioos:station:SCCF:16:1,2017-12-07T13:45:00Z,26.4345,-81.9647,10.0,2.3,90.6,-9999.0,'1111122,1111122,1111122' 
SCCF RECON,ioos:station:SCCF:16:1,2017-12-07T14:45:00Z,26.4345,-81.9647,10.0,4.4,123.7,-9999.0,'1111122,1111122,1111122' 
SCCF RECON,ioos:station:SCCF:16:1,2017-12-07T15:45:00Z,26.4345,-81.9647,10.0,2.5,143.5,-9999.0,'1111122,1111122,1111122' 
SCCF RECON,ioos:station:SCCF:16:1,2017-12-07T16:45:00Z,26.4345,-81.9647,10.0,1.5,189.3,-9999.0,'1111122,1111122,1111122' 
SCCF RECON,ioos:station:SCCF:16:1,2017-12-07T17:45:00Z,26.4345,-81.9647,10.0,2.4,199.1,-9999.0,'1111122,1111122,1111122' 
SCCF RECON,ioos:station:SCCF:16:1,2017-12-07T18:45:00Z,26.4345,-81.9647,10.0,3.6,208.4,-9999.0,'1111122,1111122,1111122' 
SCCF RECON,ioos:station:SCCF:16:1,2017-12-07T19:45:00Z,26.4345,-81.9647,10.0,3.2,229.0,-9999.0,'1111122,1111122,1111122' 
SCCF RECON,ioos:station:SCCF:16:1,2017-12-07T20:45:00Z,26.4345,-81.9647,10.0,2.6,230.8,-9999.0,'1111122,1111122,1111122' 
SCCF RECON,ioos:station:SCCF:16:1,2017-12-07T21:45:00Z,26.4345,-81.9647,10.0,4.3,228.6,-9999.0,'1111122,1111122,1111122' 
SCCF RECON,ioos:station:SCCF:16:1,2017-12-07T22:45:00Z,26.4345,-81.9647,10.0,1.5,222.9,-9999.0,'1111122,1111122,1111122' 
SCCF RECON,ioos:station:SCCF:16:1,2017-12-08T05:45:00Z,26.4345,-81.9647,10.0,1.1,200.4,-9999.0,'1111122,1111122,1111122' 
SCCF RECON,ioos:station:SCCF:16:1,2017-12-08T06:45:00Z,26.4345,-81.9647,10.0,2.7,164.6,-9999.0,'1111122,1111122,1111122' 
SCCF RECON,ioos:station:SCCF:16:1,2017-12-08T07:45:00Z,26.4345,-81.9647,10.0,2.8,150.7,-9999.0,'1111122,1111122,1111122' 
SCCF RECON,ioos:station:SCCF:16:1,2017-12-08T08:45:00Z,26.4345,-81.9647,10.0,3.4,153.6,-9999.0,'1111122,1111122,1111122' 
SCCF RECON,ioos:station:SCCF:16:1,2017-12-08T09:45:00Z,26.4345,-81.9647,10.0,3.9,176.1,-9999.0,'1111122,1111122,1111122' 
SCCF RECON,ioos:station:SCCF:16:1,2017-12-08T10:45:00Z,26.4345,-81.9647,10.0,2.9,199.1,-9999.0,'1111122,1111122,1111122' 
SCCF RECON,ioos:station:SCCF:16:1,2017-12-08T11:45:00Z,26.4345,-81.9647,10.0,3.0,194.0,-9999.0,'1111122,1111122,1111122' 
SCCF RECON,ioos:station:SCCF:16:1,2017-12-08T12:45:00Z,26.4345,-81.9647,10.0,3.3,169.2,-9999.0,'1111122,1111122,1111122' 
SCCF RECON,ioos:station:SCCF:16:1,2017-12-08T13:45:00Z,26.4345,-81.9647,10.0,5.4,168.0,-9999.0,'1111122,1111122,1111122' 
SCCF RECON,ioos:station:SCCF:16:1,2017-12-08T14:45:00Z,26.4345,-81.9647,10.0,4.8,153.1,-9999.0,'1111122,1111122,1111122' 
SCCF RECON,ioos:station:SCCF:16:1,2017-12-08T15:45:00Z,26.4345,-81.9647,10.0,6.3,174.3,-9999.0,'1111122,1111122,1111122' 
SCCF RECON,ioos:station:SCCF:16:1,2017-12-08T16:45:00Z,26.4345,-81.9647,10.0,5.5,215.1,-9999.0,'1111122,1111122,1111122' 
SCCF RECON,ioos:station:SCCF:16:1,2017-12-08T17:45:00Z,26.4345,-81.9647,10.0,4.2,210.7,-9999.0,'1111122,1111122,1111122' 
SCCF RECON,ioos:station:SCCF:16:1,2017-12-08T18:45:00Z,26.4345,-81.9647,10.0,3.7,208.9,-9999.0,'1111122,1111122,1111122' 
SCCF RECON,ioos:station:SCCF:16:1,2017-12-08T19:45:00Z,26.4345,-81.9647,10.0,2.9,209.3,-9999.0,'1111122,1111122,1111122' 
SCCF RECON,ioos:station:SCCF:16:1,2017-12-08T20:45:00Z,26.4345,-81.9647,10.0,6.1,167.9,-9999.0,'1111122,1111122,1111122' 
SCCF RECON,ioos:station:SCCF:16:1,2017-12-08T21:45:00Z,26.4345,-81.9647,10.0,7.0,171.1,-9999.0,'1111122,1111122,1111122' 
SCCF RECON,ioos:station:SCCF:16:1,2017-12-08T22:45:00Z,26.4345,-81.9647,10.0,7.4,171.8,-9999.0,'1111122,1111122,1111122' 
SCCF RECON,ioos:station:SCCF:16:1,2017-12-09T05:45:00Z,26.4345,-81.9647,10.0,8.4,179.6,-9999.0,'1111122,1111122,1111122' 
SCCF RECON,ioos:station:SCCF:16:1,2017-12-09T06:45:00Z,26.4345,-81.9647,10.0,5.9,210.8,-9999.0,'1111122,1111122,1111122' 
SCCF RECON,ioos:station:SCCF:16:1,2017-12-09T07:45:00Z,26.4345,-81.9647,10.0,4.4,197.6,-9999.0,'1111122,1111122,1111122' 
SCCF RECON,ioos:station:SCCF:16:1,2017-12-09T08:45:00Z,26.4345,-81.9647,10.0,7.3,206.7,-9999.0,'1111122,1111122,1111122' 
SCCF RECON,ioos:station:SCCF:16:1,2017-12-09T09:45:00Z,26.4345,-81.9647,10.0,11.8,274.4,-9999.0,'1111122,1111122,1111122' 
SCCF RECON,ioos:station:SCCF:16:1,2017-12-09T10:45:00Z,26.4345,-81.9647,10.0,11.0,313.6,-9999.0,'1111122,1111122,1111122' 
SCCF RECON,ioos:station:SCCF:16:1,2017-12-09T11:45:00Z,26.4345,-81.9647,10.0,13.6,325.2,-9999.0,'1111122,1111122,1111122' 
SCCF RECON,ioos:station:SCCF:16:1,2017-12-09T12:45:00Z,26.4345,-81.9647,10.0,9.1,336.3,-9999.0,'1111122,1111122,1111122' 
SCCF RECON,ioos:station:SCCF:16:1,2017-12-09T13:45:00Z,26.4345,-81.9647,10.0,6.9,339.9,-9999.0,'1111122,1111122,1111122' 
SCCF RECON,ioos:station:SCCF:16:1,2017-12-09T14:45:00Z,26.4345,-81.9647,10.0,8.6,343.7,-9999.0,'1111122,1111122,1111122' 
SCCF RECON,ioos:station:SCCF:16:1,2017-12-09T15:45:00Z,26.4345,-81.9647,10.0,7.3,350.9,-9999.0,'1111122,1111122,1111122' 
SCCF RECON,ioos:station:SCCF:16:1,2017-12-09T16:45:00Z,26.4345,-81.9647,10.0,5.7,338.9,-9999.0,'1111122,1111122,1111122' 
SCCF RECON,ioos:station:SCCF:16:1,2017-12-09T17:45:00Z,26.4345,-81.9647,10.0,6.5,319.0,-9999.0,'1111122,1111122,1111122' 
SCCF RECON,ioos:station:SCCF:16:1,2017-12-09T18:45:00Z,26.4345,-81.9647,10.0,13.3,332.8,-9999.0,'1111122,1111122,1111122' 
SCCF RECON,ioos:station:SCCF:16:1,2017-12-09T19:45:00Z,26.4345,-81.9647,10.0,13.6,323.8,-9999.0,'1111122,1111122,1111122' 
SCCF RECON,ioos:station:SCCF:16:1,2017-12-09T20:45:00Z,26.4345,-81.9647,10.0,12.3,340.4,-9999.0,'1111122,1111122,1111122' 
SCCF RECON,ioos:station:SCCF:16:1,2017-12-09T21:45:00Z,26.4345,-81.9647,10.0,9.6,4.7,-9999.0,'1111122,1111122,1111122' 
SCCF RECON,ioos:station:SCCF:16:1,2017-12-09T22:45:00Z,26.4345,-81.9647,10.0,7.2,344.2,-9999.0,'1111122,1111122,1111122' 
SCCF RECON,ioos:station:SCCF:16:1,2017-12-10T05:45:00Z,26.4345,-81.9647,10.0,4.7,35.8,-9999.0,'1111122,1111122,1111122' 
SCCF RECON,ioos:station:SCCF:16:1,2017-12-10T06:45:00Z,26.4345,-81.9647,10.0,6.8,9.5,-9999.0,'1111122,1111122,1111122' 
SCCF RECON,ioos:station:SCCF:16:1,2017-12-10T07:45:00Z,26.4345,-81.9647,10.0,8.9,5.8,-9999.0,'1111122,1111122,1111122' 
SCCF RECON,ioos:station:SCCF:16:1,2017-12-10T08:45:00Z,26.4345,-81.9647,10.0,6.2,35.8,-9999.0,'1111122,1111122,1111122' 
SCCF RECON,ioos:station:SCCF:16:1,2017-12-10T09:45:00Z,26.4345,-81.9647,10.0,5.8,17.3,-9999.0,'1111122,1111122,1111122' 
SCCF RECON,ioos:station:SCCF:16:1,2017-12-10T10:45:00Z,26.4345,-81.9647,10.0,7.1,18.4,-9999.0,'1111122,1111122,1111122' 
SCCF RECON,ioos:station:SCCF:16:1,2017-12-10T11:45:00Z,26.4345,-81.9647,10.0,6.3,26.8,-9999.0,'1111122,1111122,1111122' 
SCCF RECON,ioos:station:SCCF:16:1,2017-12-10T12:45:00Z,26.4345,-81.9647,10.0,5.1,56.2,-9999.0,'1111122,1111122,1111122' 
SCCF RECON,ioos:station:SCCF:16:1,2017-12-10T13:45:00Z,26.4345,-81.9647,10.0,6.7,44.2,-9999.0,'1111122,1111122,1111122' 
SCCF RECON,ioos:station:SCCF:16:1,2017-12-10T14:45:00Z,26.4345,-81.9647,10.0,9.2,28.7,-9999.0,'1111122,1111122,1111122' 
SCCF RECON,ioos:station:SCCF:16:1,2017-12-10T15:45:00Z,26.4345,-81.9647,10.0,8.6,29.6,-9999.0,'1111122,1111122,1111122' 
SCCF RECON,ioos:station:SCCF:16:1,2017-12-10T16:45:00Z,26.4345,-81.9647,10.0,6.5,15.2,-9999.0,'1111122,1111122,1111122' 
SCCF RECON,ioos:station:SCCF:16:1,2017-12-10T17:45:00Z,26.4345,-81.9647,10.0,7.1,28.0,-9999.0,'1111122,1111122,1111122' 
SCCF RECON,ioos:station:SCCF:16:1,2017-12-10T18:45:00Z,26.4345,-81.9647,10.0,3.6,26.3,-9999.0,'1111122,1111122,1111122' 
SCCF RECON,ioos:station:SCCF:16:1,2017-12-10T19:45:00Z,26.4345,-81.9647,10.0,6.0,18.2,-9999.0,'1111122,1111122,1111122' 
SCCF RECON,ioos:station:SCCF:16:1,2017-12-10T20:45:00Z,26.4345,-81.9647,10.0,2.4,324.0,-9999.0,'1111122,1111122,1111122' 
SCCF RECON,ioos:station:SCCF:16:1,2017-12-10T21:45:00Z,26.4345,-81.9647,10.0,4.8,343.8,-9999.0,'1111122,1111122,1111122' 
SCCF RECON,ioos:station:SCCF:16:1,2017-12-10T22:45:00Z,26.4345,-81.9647,10.0,4.6,346.1,-9999.0,'1111122,1111122,1111122' 
SCCF RECON,ioos:station:SCCF:16:1,2017-12-11T05:45:00Z,26.4345,-81.9647,10.0,5.2,34.1,-9999.0,'1111122,1111122,1111122' 
SCCF RECON,ioos:station:SCCF:16:1,2017-12-11T06:45:00Z,26.4345,-81.9647,10.0,4.1,22.0,-9999.0,'1111122,1111122,1111122' 
SCCF RECON,ioos:station:SCCF:16:1,2017-12-11T07:45:00Z,26.4345,-81.9647,10.0,4.0,10.6,-9999.0,'1111122,1111122,1111122' 
SCCF RECON,ioos:station:SCCF:16:1,2017-12-11T08:45:00Z,26.4345,-81.9647,10.0,4.1,33.3,-9999.0,'1111122,1111122,1111122' 
SCCF RECON,ioos:station:SCCF:16:1,2017-12-11T09:45:00Z,26.4345,-81.9647,10.0,3.8,20.1,-9999.0,'1111122,1111122,1111122' 
SCCF RECON,ioos:station:SCCF:16:1,2017-12-11T10:45:00Z,26.4345,-81.9647,10.0,4.7,41.6,-9999.0,'1111122,1111122,1111122' 
SCCF RECON,ioos:station:SCCF:16:1,2017-12-11T11:45:00Z,26.4345,-81.9647,10.0,4.7,68.8,-9999.0,'1111122,1111122,1111122' 
SCCF RECON,ioos:station:SCCF:16:1,2017-12-11T12:45:00Z,26.4345,-81.9647,10.0,5.2,41.0,-9999.0,'1111122,1111122,1111122' 
SCCF RECON,ioos:station:SCCF:16:1,2017-12-11T13:45:00Z,26.4345,-81.9647,10.0,4.8,48.9,-9999.0,'1111122,1111122,1111122' 
SCCF RECON,ioos:station:SCCF:16:1,2017-12-11T14:45:00Z,26.4345,-81.9647,10.0,3.9,59.4,-9999.0,'1111122,1111122,1111122' 
SCCF RECON,ioos:station:SCCF:16:1,2017-12-11T15:45:00Z,26.4345,-81.9647,10.0,3.7,73.8,-9999.0,'1111122,1111122,1111122' 
SCCF RECON,ioos:station:SCCF:16:1,2017-12-11T16:45:00Z,26.4345,-81.9647,10.0,3.1,19.9,-9999.0,'1111122,1111122,1111122' 
SCCF RECON,ioos:station:SCCF:16:1,2017-12-11T17:45:00Z,26.4345,-81.9647,10.0,3.7,4.3,-9999.0,'1111122,1111122,1111122' 
SCCF RECON,ioos:station:SCCF:16:1,2017-12-11T18:45:00Z,26.4345,-81.9647,10.0,5.8,308.3,-9999.0,'1111122,1111122,1111122' 
SCCF RECON,ioos:station:SCCF:16:1,2017-12-11T19:45:00Z,26.4345,-81.9647,10.0,5.8,305.2,-9999.0,'1111122,1111122,1111122' 
SCCF RECON,ioos:station:SCCF:16:1,2017-12-11T20:45:00Z,26.4345,-81.9647,10.0,6.1,314.3,-9999.0,'1111122,1111122,1111122' 
SCCF RECON,ioos:station:SCCF:16:1,2017-12-11T21:45:00Z,26.4345,-81.9647,10.0,5.4,317.2,-9999.0,'1111122,1111122,1111122' 
SCCF RECON,ioos:station:SCCF:16:1,2017-12-11T22:45:00Z,26.4345,-81.9647,10.0,3.9,330.2,-9999.0,'1111122,1111122,1111122' 